Погода в Здвинске

Погода в Здвинске : погода сейчас, прогноз погоды и архив. Всё, что Вы хотите узнать о погоде в Здвинске!

Хотите узнать прогноз погоды в Здвинске? Тогда Вам сюда: Погода в Здвинске

Поиск расширенной информации на нашем сайте:

Полезная информация: трубы 25 мм хром

Другие новости

Новости СМИ2

Главная страница сайта

Новости сайта

02.10.2013

Напоминаем, что на нашем новом сайте вы можете получить высокодетализированные прогнозы погоды по пунктам России, СНГ и мира (включающие важные для авиации метеовеличины, такие как направление и скорость ветра, видимость, явления погоды, количество и форма облачности, нижняя и верхняя граница облачности), а также ознакомиться с разнообразными материалами по авиационной метеорологии и подборкой полезных ссылок на эту тему.

Сайт Метеоцентр.Азия посвящён разработке технологий оптимизации авиаметеорологического обслуживания, включая проектирование и перспективное создание нескольких автоматизированных авиаметеорологических систем:
- система выпуска высокодетальных прогностических карт явлений погоды для нижнего воздушного пространства по России и ближнему зарубежью;
- система верификации прогнозов TAF (выпускаемых синоптиками официальных АМСГ РФ и ближнего зарубежья) и AUTOTAF (выпускаемых сайтом Метеоцентр.Азия) - выявление ошибок, онлайн-сопоставление с фактической погодой METAR, автоматическое внесение коррективов в прогнозы при резком отклонении фактической погоды от прогноза, подсчёт оправдываемости прогнозов по элементам и в целом;
- система обработки, анализа и отображения авиаметеорологической информации для применения провайдерами метеорологической информации.

Рекомендуем: Стойка для печатной продукции

Погода в Здвинске - сегодня

Время (UTC), дата Ветер
(°,м/с) 
Видим.   Явления Облачность Т
(°С)
Тd
(°С)
f(%) Тe
(°С)
Pmin
(гПа)
dP
(гПа)
Po
(мм)
O2
(г/м3)
Тmin Tmax R s Состояние
почвы
03 22.05.17 190 (Ю) 6-10{11}  20000 м    8/0 средняя 
[Ac As]
+22.2 +3.6 30 +22  1010.3  -0.9  748  278           
06 22.05.17 200 (Ю) 6-11{11}  20000 м    10/0 средняя 
[Ac und]
+25.8 +2.1 21 +26  1008.6  -1.5  747  275           
09 22.05.17 210 (ЮЗ) 7-11{12}  20000 м    8/5 600 м кучево-дожд., средняя 
[Cb cap|Ac As]
+26.6 +2 20 +27  1007.4  -1.1  746  274           
12 22.05.17 210 (ЮЗ) 7-12{13}  20000 м    4/0 верхняя 
[Cc]
+27.7 +1 18 +28  1006.6  -0.8  745  272    +27.8       
15 22.05.17 190 (Ю) 4{12}  20000 м    8/0 средняя, верхняя 
[Ac As|Cc]
+22.8 +2.4 26 +23  1006.6  -0.2  745  277           
18 22.05.17 180 (Ю) 20000 м    8/0 средняя 
[Ac As]
+19.6 +2.3 32 +20  1006.4  -0.4  745  280           
21 22.05.17 180 (Ю) 20000 м    6/0 средняя 
[Ac As]
+17.6 +1.4 34 +18  1005.3  -1.2  744  281           
00 23.05.17 150 (ЮВ) 20000 м    4/0 верхняя 
[Ci sp]
+15.6 +2.9 42 +16  1004.1  -1.3  743  283  +14.9        сухая 
03 23.05.17 170 (Ю) 20000 м    8/0 верхняя 
[Ci sp]
+21.4 +5 34 +21  1002.4  -1.4  742  276           
06 23.05.17 180 (Ю) 7-12{12}  20000 м    5/0 верхняя 
[Ci fib]
+29.1 +4.3 21 +29  1000.1  -2  741  269           
09 23.05.17 190 (Ю) 8-15{16}  20000 м    9/0 средняя, верхняя 
[Ac As|Ci fib]
+30.9 +1.3 15 +31  997.5  -2.4  739  267           
12 23.05.17 180 (Ю) 5{17}  20000 м    10/6 600 м средняя 
[Sc|Ac und]
+29.6 +3 18 +30  995.4  -2.2  737  267    +31.4       
15 23.05.17 250 (З) 6-10{17}  20000 м    8/8 600 м кучево-дожд. 
[Cb cap]
+26.1 +7.3 30 +26  994.8  -0.7  737  270           
18 23.05.17 230 (ЮЗ) 9-16{20}  20000 м    8/8 600 м кучево-дожд. 
[Cb cap]
+20.4 +8.8 47 +20  997.1  738  275           
21 23.05.17 250 (З) 10-16{20}  20000 м    6/6 600 м кучево-дожд. 
[Cb cap]
+15.7 +9.4 66 +16  999.9  2.6  740  280           
00 24.05.17 250 (З) 8-14{18}  20000 м    8/6 600 м кучево-дожд., верхняя 
[Cb cap|Ci fib]
+12.8 +7.5 70 +11  1003.4  3.3  743  284  +12.8        сухая 
03 24.05.17 240 (ЮЗ) 6-10{14}  20000 м    8/8 600 м кучево-дожд. 
[Cb cap]
+13.2 +6.8 65 +12  1005.8  2.3  744  285  +12.1         
06 24.05.17 230 (ЮЗ) 7-12{13}  20000 м    5/3 600 м верхняя 
[Cu hum|Ci fib]
+17.6 +5.7 46 +17  1006.8  1.3  745  281           
09 24.05.17 260 (З) 5-10{13}  20000 м    10/8 600 м кучево-дожд., средняя 
[Cb cap|Ac und]
+16.9 +6.4 50 +17  1006.8  -0.1  745  282           
12 24.05.17 270 (З) 4{10}  10 км  слаб. ливневой дождь  10/10 600 м кучево-дожд. 
[Cb cap]
+12.5 +10.3 86 +14  1006.5  -0.5  745  285    +19.2  0.7     
15 24.05.17 220 (ЮЗ) 20000 м  {ливн. осадки}  6/4 600 м кучево-дожд., средняя 
[Cb cap|Ac As]
+11.1 +9.5 90 +12  1007  0.5  745  287           
18 24.05.17 280 (З) 20000 м  {ливн. осадки}  6/3 600 м кучево-дожд., средняя 
[Cb cap|Ac As]
+9.2 +5.6 78 +8  1009.7  2.6  747  290           
21 24.05.17 240 (ЮЗ) 20000 м    3/0 средняя 
[Ac As]
+6.4 +4.1 85 +6  1011.7  1.8  748  294           
00 25.05.17 250 (З) 20000 м    3/0 средняя 
[Ac As]
+7.3 +4.9 85 +7  1013.2  1.5  750  293  +5.9      влажная 
03 25.05.17 270 (З) 20000 м    ясно 
+10.3 +1.8 56 +9  1014.8  1.7  751  291           
Время (UTC), дата Ветер
(°,м/с) 
Видим.   Явления Облачность Т
(°С)
Тd
(°С)
f(%) Тe
(°С)
Pmin
(гПа)
dP
(гПа)
Po
(мм)
O2
(г/м3)
Тmin Tmax R s Состояние
почвы

Для получения пояснительной информации подведите курсор к названию столбца.

ПОГОДА в Здвинске - архив

Всё, что Вы хотите узнать о погоде в Здвинске - удобно и подробно!

Выберите нужную дату (начиная с 1 января 2015* года) и нажмите кнопку "Найти".
Будут отображены архивные сводки погоды по пункту Здвинск, начиная с указанной даты.


Отображать данные в формате CSV (для использования в таблицах Excel)


Внимание! Наш архив погоды предназначен исключительно для личного некоммерческого использования в познавательных целях. Если Вам необходимы официальные справки о состоянии погоды (для производственных, юридических, коммерческих и т.п. целей), обращайтесь в органы Росгидромета.

*Примечание: данная дата относится к архиву по метеостанциям СССР (Россия, СНГ, Балтия).
Архив по метеостанциям Зарубежной Европы и Азии (кроме Китая) хранится 10 дней, по другим регионам земного шара (Китай, Африка, Америка, Австралия, Океания) - 1 день.

Здвинск - район местоположения метеостанции


Название, широта, долгота, высота метеостанции:
Здвинск 54.7°ш. 78.7°д. 113 м над ур. моря [Российская Федерация]

Дополнительная информация

В oтличие oт бoльшинства пoгoдных сайтoв мы публикуем пoдрoбную метеoинфoрмацию в детальнoм прoфессиoнальнoм фoрмате.

Характеристики температуры и влажнoсти вoздуха измеряются на высoте 2 м в тени вдали oт зданий и деревьев.
Скoрoсть ветра измеряется на высoте 10 м (на урoвне рoста челoвека скoрoсть ветра ниже в 1.5-2 раза). Если метеoстанция нахoдится в гoрoде или в лесу, тo скoрoсть ветра занижена на 2-4 м/с пo сравнению с oткрытым местoм. Скoрoсть ветра над акватoриями крупных рек и oзёр, а также на вершинах хoлмoв на 2-5 м/с выше, чем в oбычных услoвиях.
Атмoсфернoе давление в разных тoчках местнoсти мoжет значительнo oтличаться oт давления на метеoстанции, в зависимoсти oт услoвий рельефа (при пoдъёме на 10 м давление пoнижается примернo на 1 мм рт.ст.).